Home > Weather > Viernheim > Past weeks

Flag for Germany Weather for the Past 2 Weeks in Viernheim, Hesse, Germany

Now
45 °F

Light rain. Partly sunny.


Feels Like: 38 °F
Forecast: 38 / 43 °F
Wind: 13 mph from Southeast

Location: Mannheim City

Current Time: Feb 9, 2016 at 12:58:55 PM

Latest Report: Feb 9, 2016 at 11:50 AM


Visibility: 4 mi

Pressure: 29.36 "Hg

Humidity: 100%

Dew point: 45 °F

Location of ViernheimLocation

Historic Weather in Viernheim — Graph

°F

Viernheim Temperature Yesterday

Maximum temperature yesterday: 52 °F (at 12:20 PM)
Minimum temperature yesterday: 43 °F (at 5:50 PM)
Average temperature yesterday: 48 °F

High & Low Weather Summary for the Past Weeks

 TemperatureHumidityPressure
High59 °F (Jan 26, 3:20 PM)100% (Jan 31, 8:50 AM)30.45 "Hg (Jan 31, 8:50 AM)
Low37 °F (Jan 29, 7:50 AM)50% (Jan 29, 1:50 PM)29.45 "Hg (Feb 9, 10:50 AM)
Average48 °F75%30.10 "Hg
* Reported Jan 25 10:20 AM — Feb 9 10:50 AM, Viernheim, Weather by CustomWeather, © 2016

Note: Actual official high and low records may vary slightly from our data, if they occured in-between our weather recording intervals... More about our weather records

Advertising

Viernheim Weather History for the Previous 24 Hours

 ConditionsComfort  
Time TempWeatherWind HumidityBarometerVisibility
10:50 AM
Tue, Feb 9
45 °FLight rain. Partly sunny.6 mph100%29.45 "Hg6 mi
10:20 AM45 °FLight rain. Broken clouds.7 mph93%29.47 "HgN/A
9:50 AM46 °FLight rain. Mostly cloudy.7 mph82%29.50 "Hg6 mi
8:50 AM46 °FPartly sunny.12 mph82%29.53 "HgN/A
8:20 AM45 °FBroken clouds.12 mph81%29.56 "HgN/A
7:50 AM45 °FPartly sunny.8 mph81%29.59 "HgN/A
7:20 AM45 °FPassing clouds.8 mph81%29.59 "HgN/A
6:50 AM45 °FPassing clouds.9 mph81%29.62 "HgN/A
6:20 AM46 °FPassing clouds.9 mph76%29.62 "HgN/A
5:50 AM46 °FLight rain. Passing clouds.9 mph76%29.65 "HgN/A
8:50 PM
Mon, Feb 8
45 °FPassing clouds.12 mph71%29.62 "HgN/A
8:20 PM46 °FPartly cloudy.14 mph66%29.62 "HgN/A
7:50 PM46 °FScattered showers. Passing clouds.18 mph71%29.62 "HgN/A
7:20 PM46 °FPassing clouds.12 mph66%29.59 "HgN/A
6:50 PM46 °FPassing clouds.12 mph66%29.59 "HgN/A
6:20 PM45 °FPassing clouds.9 mph76%29.59 "HgN/A
5:50 PM43 °FScattered showers. Partly cloudy.24 mph100%29.62 "HgN/A
5:20 PM48 °FSprinkles. Partly sunny.9 mph71%29.56 "HgN/A
4:50 PM48 °FScattered clouds.10 mph76%29.53 "HgN/A
4:20 PM46 °FScattered showers. Broken clouds.12 mph87%29.56 "HgN/A
3:50 PM48 °FScattered showers. Scattered clouds.13 mph76%29.50 "HgN/A
3:20 PM46 °FScattered showers. Broken clouds.15 mph82%29.50 "HgN/A
2:50 PM48 °FLight rain. Partly sunny.23 mph76%29.53 "HgN/A
2:20 PM48 °FLight rain. Partly sunny.12 mph94%29.53 "Hg5 mi
1:50 PM50 °FLight rain. Broken clouds.13 mph82%29.50 "HgN/A
1:20 PM50 °FLight rain. Partly sunny.15 mph82%29.50 "HgN/A
12:50 PM52 °FPartly sunny.16 mph72%29.50 "HgN/A
12:20 PM52 °FLight rain. Scattered clouds.16 mph72%29.50 "HgN/A
Weather by CustomWeather, © 2016

See weather overviewHow to use our weather pages